Orbital Elements at Epoch 2459200.5 (2020-Dec-17.0) TDB
Reference: JPL 19 (heliocentric ecliptic J2000)
Element | Value | Uncertainty (1-sigma) | Units |
e | .2095869779495937 | 3.5398e-08 | |
a | 2.752053618849189 | 1.7839e-08 | au |
q | 2.175259017719345 | 9.5259e-08 | au |
i | 8.945196106769263 | 4.3721e-06 | deg |
node | 153.2516041724292 | 3.4216e-05 | deg |
peri | 150.4344892591173 | 3.7963e-05 | deg |
M | 182.4573412133828 | 2.0341e-05 | deg |
tp | 2460022.901667281550 (2023-Mar-19.40166728) | 9.9717e-05 | TDB |
period | 1667.5688099117 4.57 | 1.6214e-05 4.439e-08 | d yr |
n | .2158831454871494 | 2.099e-09 | deg/d |
Q | 3.328848219979033 | 2.1578e-08 | au |
|
| | Orbit Determination Parameters
Additional Information
|